Location: Poughquag
(41.6090°N, 73.6820°W)
Time: 12:49:02
(UTC-04:00)

DIWATA 2B (PO-101) - Pass Details

Date: 01 June 2024
Orbit: 574 x 588 km, 98.1° (Epoch: 14 June)

Event Time Altitude Azimuth Distance (km) Brightness Sun altitude
Rises 04:26:01 0° 168° (SSE) 2,781 ? -9.4°
Reaches altitude 10° 04:28:09 10° 169° (S) 1,885 ? -9.1°
Maximum altitude 04:32:14 81° 256° (WSW) 589 ? -8.5°
Drops below altitude 10° 04:36:21 10° 345° (NNW) 1,893 ? -7.9°
Sets 04:38:30 0° 347° (NNW) 2,795 ? -7.6°
